User: anonymous   Login
Location: Dampvalley
(47.9094°N, 6.1967°E)
Time: 23:23:08
(UTC+00:00)
Language:

Cosmos 2322 - Orbit

View from above orbital plane
View from above orbital plane
View from above satellite
View from above satellite

Ground track
Ground track

The orbit data is extracted from the following two-line orbital elements,

1 23704U 95058A   21129.55430525 -.00000216  00000-0 -89376-4 0  9995
2 23704  70.9857 302.4139 0006765 103.3346 256.8530 14.13438425316611
Epoch (UTC): 09 May 2021 13:18:11
Eccentricity: 0.0006765
inclination: 70.9857°
perigee height: 843 km
apogee height: 852 km
right ascension of ascending node: 302.4139°
argument of perigee: 103.3346°
revolutions per day: 14.13438425
mean anomaly at epoch: 256.8530°
orbit number at epoch: 31661

The dashed part of the orbit path shows where the satellite is in the earth's shadow,  

DLR